SCP
0 0 0 0 0 0 0 0 0 0 0 0 0 0 0 0 0 0 0 0 0 0 0 0 0 0 0 0 0 0 0 0 0 0 0 0 0 0 0 0 0 0 0
0 0 0 0 0 0 0 0 0 0 0 0 0 0 0 0 0 0 0 0 0 0 0 0 0 0 0 0 0 0 0 0 0 0 0 0 0 0 0 0 0 0 0
0 0 0 0 0 0 0 0 0 0 0 0 0 0 0 0 0 0 0 0 0 0 0 0 0 0 0 0 0 0 0 0 0 0 0 0 0 0 0 0 0 0 0
0 0 0 0 0 0 0 0 0 0 0 0 0 0 0 0 0 0 0 0 0 0 0 0 0 0 0 0 0 0 0 0 0 0 0 0 0 0 0 0 0 0 0
0 0 0 0 0 0 0 0 0 0 0 0 0 0 0 0 0 0 0 0 0 0 0 0 0 0 0 0 0 0 0 0 0 0 0 0 0 0 0 0 0 0 0
0 0 0 0 0 0 0 0 0 0 0 0 0 0 0 0 0 0 0 0 0 0 0 0 0 0 0 0 0 0 0 0 0 0 0 0 0 0 0 0 0 0 0
0 0 0 0 0 0 0 0 0 0 0 0 0 0 0 0 0 0 0 0 0 0 0 0 0 0 0 0 0 0 0 0 0 0 0 0 0 0 0 0 0 0 0
0 0 0 0 0 0 0 0 0 0 0 0 0 0 0 0 0 0 0 0 0 0 0 0 0 0 0 0 0 0 0 0 0 0 0 0 0 0 0 0 0 0 0
0 0 0 0 0 0 0 0 0 0 0 0 0 0 0 0 0 0 0 0 0 0 0 0 0 0 0 0 0 0 0 0 0 0 0 0 0 0 0 0 0 0 0
0 0 0 0 0 0 0 0 0 0 0 0 0 0 0 0 0 0 0 0 0 0 0 0 0 0 0 0 0 0 0 0 0 0 0 0 0 0 0 0 0 0 0
0 0 0 0 0 0 0 0 0 0 0 0 0 0 0 0 0 0 0 0 0 0 0 0 0 0 0 0 0 0 0 0 0 0 0 0 0 0 0 0 0 0 0
0 0 0 0 0 0 0 0 0 0 0 0 0 0 0 0 0 0 0 0 0 0 0 0 0 0 0 0 0 0 0 0 0 0 0 0 0 0 0 0 0 0 0
0 0 0 0 0 0 0 0 0 0 0 0 0 0 0 0 0 0 0 0 0 0 0 0 0 0 0 0 0 0 0 0 0 0 0 0 0 0 0 0 0 0 0
0 0 0 0 0 0 0 0 0 0 0 0 0 0 0 0 0 0 0 0 0 0 0 0 0 0 0 0 0 0 0 0 0 0 0 0 0 0 0 0 0 0 0
0 0 0 0 0 0 0 0 0 0 0 0 0 0 0 0 0 0 0 0 0 0 0 0 0 0 0 0 0 0 0 0 0 0 0 0 0 0 0 0 0 0 0
0 0 0 0 0 0 0 0 0 0 0 0 0 0 0 0 0 0 0 0 0 0 0 0 0 0 0 0 0 0 0 0 0 0 0 0 0 0 0 0 0 0 0
0 0 0 0 0 0 0 0 0 0 0 0 0 0 0 0 0 0 0 0 0 0 0 0 0 0 0 0 0 0 0 0 0 0 0 0 0 0 0 0 0 0 0
0 0 0 0 0 0 0 0 0 0 0 0 0 0 0 0 0 0 0 0 0 0 0 0 0 0 0 0 0 0 0 0 0 0 0 0 0 0 0 0 0 0 0
0 0 0 0 0 0 0 0 0 0 0 0 0 0 0 0 0 0 0 0 0 0 0 0 0 0 0 0 0 0 0 0 0 0 0 0 0 0 0 0 0 0 0
0 0 0 0 0 0 0 0 0 0 0 0 0 0 0 0 0 0 0 0 0 0 0 0 0 0 0 0 0 0 0 0 0 0 0 0 0 0 0 0 0 0 0
0 0 0 0 0 0 0 0 0 0 0 0 0 0 0 0 0 0 0 0 0 0 0 0 0 0 0 0 0 0 0 0 0 -0 0 0 0 0 -0 -0 0 -0 -0
0 0 0 0 0 0 0 0 0 0 0 0 0 0 0 0 0 0 0 0 0 0 0 0 0 0 0 0 0 0 0 0 0 0 0 0 -0 -0 0 0 -0 -0 0
0 0 0 0 0 0 0 0 0 0 0 0 0 0 0 0 0 0 0 0 0 0 0 0 0 0 0 0 0 0 0 0 0 0 0 0 0 0 0 0 0 -0 0
0 0 0 0 0 0 0 0 0 0 0 0 0 0 0 0 0 0 0 0 0 0 0 0 0 0 0 0 0 0 0 0 0 0 0 0 0 0 0 0 -0 0 0
0 0 0 0 0 0 0 0 0 0 0 0 0 0 0 0 0 0 0 0 0 0 0 0 0 0 0 0 0 0 0 0 0 0 0 0 0 0 0 0 0 0 0
0 0 0 0 0 0 0 0 0 0 0 0 0 0 0 0 0 0 0 0 0 0 0 0 0 0 0 0 0 0 0 0 0 0 -0 0 0 0 0 0 0 0 0
Wind_Speed_500mb
28 26 26 26 25 21 20 26 30 37 36 38 40 36 36 29 26 20 17 9 19 24 26 23 28 28 29 31 32 30 31 30 30 30 27 30 29 28 28 28 27 26 26
30 29 29 28 27 25 28 32 31 40 41 42 39 37 35 41 33 27 16 14 15 13 22 21 19 24 25 27 29 28 27 26 26 26 23 24 23 20 21 19 22 20 23
33 32 31 30 30 30 34 37 42 44 44 43 46 42 43 36 29 26 18 15 17 19 25 21 18 21 22 22 24 23 23 19 19 18 18 18 16 15 14 15 14 15 15
37 35 33 32 31 33 39 45 48 49 48 48 48 44 43 36 28 25 21 21 23 22 25 22 20 21 19 19 19 14 15 16 15 13 12 13 11 11 10 11 11 11 14
40 38 35 35 33 35 42 52 54 53 51 53 51 46 37 28 23 28 24 23 25 24 19 14 18 22 18 14 12 11 10 9 7 7 7 7 7 8 9 11 13 14 16
42 40 40 40 37 39 46 54 58 57 55 52 47 40 35 35 35 32 30 29 28 24 20 15 15 12 11 10 8 9 6 4 4 6 8 9 10 11 12 14 15 18 21
45 45 45 44 41 44 48 54 58 58 60 57 51 46 44 40 39 36 34 30 28 26 22 17 16 14 12 12 10 6 3 2 6 10 12 13 14 15 16 17 19 22 25
52 49 50 46 45 47 53 55 59 63 62 62 57 48 28 36 39 37 34 32 31 27 22 20 19 17 15 14 13 13 13 12 13 15 17 19 20 20 21 24 26 29 32
51 52 51 48 47 50 54 56 59 62 66 64 57 33 18 20 39 39 38 36 34 29 26 24 22 20 20 18 18 18 19 19 20 22 23 25 28 30 30 30 33 35 38
57 54 52 51 50 52 52 54 56 58 59 61 59 56 23 16 20 21 43 41 37 33 30 27 24 23 22 21 21 23 24 25 27 29 31 34 36 38 40 39 40 42 45
58 56 55 55 54 53 51 53 54 55 56 57 59 58 29 16 15 12 16 43 43 37 32 28 27 26 24 24 26 27 28 30 34 36 39 41 44 48 50 45 45 48 51
58 58 58 59 55 54 54 54 50 52 53 53 56 50 47 27 21 23 21 20 39 37 34 31 29 28 27 28 30 32 34 36 40 42 44 48 53 58 60 57 51 52 53
62 62 61 61 59 58 56 54 53 53 54 53 55 52 41 40 35 26 29 21 22 33 32 34 33 32 31 32 35 37 40 42 45 49 52 58 64 66 67 66 54 53 55
60 58 62 59 58 58 57 56 55 53 53 51 52 48 46 44 41 36 30 28 22 24 29 28 31 34 36 38 40 43 45 48 52 56 62 68 69 70 69 60 52 54 57
55 55 56 58 58 59 59 57 57 55 53 51 49 48 45 45 42 37 34 31 28 21 22 27 31 32 36 39 43 46 50 54 60 65 71 71 71 70 68 61 63 69 66
55 54 56 55 57 58 58 58 56 54 53 52 50 47 43 40 38 35 33 31 29 27 23 20 24 29 33 39 45 51 56 62 67 70 72 72 72 73 76 79 83 82 69
55 53 55 55 56 58 58 57 55 54 54 52 48 45 42 39 36 33 31 30 29 27 26 26 27 30 35 42 49 56 62 66 69 69 70 73 75 79 83 87 87 66 73
52 51 53 54 55 56 57 57 57 56 53 51 47 44 41 38 35 31 30 29 29 28 27 28 32 37 41 50 57 61 65 67 69 71 75 78 81 87 91 88 89 87 91
50 49 51 51 54 54 55 55 53 51 48 43 40 39 37 35 32 30 29 28 28 27 28 32 37 43 50 56 61 64 67 70 72 76 80 88 92 84 99 102 110 106 93
49 48 48 49 51 50 51 51 50 47 42 41 40 38 36 33 30 28 27 27 27 28 32 35 39 44 50 55 61 69 73 74 85 88 95 89 100 105 115 109 111 106 103
47 45 45 47 47 46 46 46 44 43 43 44 42 38 34 32 31 28 26 26 26 30 33 35 39 44 49 56 62 69 79 90 96 95 99 101 115 118 115 112 104 105 85
46 45 46 46 48 47 45 43 42 43 43 41 38 35 33 31 30 30 27 26 29 32 34 36 39 43 49 56 66 75 84 94 101 91 111 124 115 115 105 103 101 94 79
44 44 44 44 44 43 42 41 41 41 40 37 34 32 29 27 25 22 24 27 28 32 40 38 39 43 51 62 71 79 86 90 94 99 102 126 107 102 101 100 95 87 74
42 43 42 41 42 43 43 44 43 41 38 36 33 31 28 25 23 25 26 25 28 32 35 38 42 48 54 63 71 80 84 90 92 90 81 105 92 102 101 98 91 95 90
41 41 40 42 44 46 45 45 45 44 41 37 34 30 25 22 24 29 28 26 28 33 38 44 48 54 62 64 69 77 79 84 92 86 75 72 90 99 105 106 100 104 100
40 41 43 44 48 49 47 41 42 42 41 37 31 26 23 22 27 30 28 28 32 38 41 48 53 55 59 61 64 65 68 69 69 81 59 81 84 85 108 111 117 117 120
Wind_Direction_500mb
230 232 230 226 226 220 202 180 170 164 173 178 173 175 174 165 156 151 154 164 108 104 106 105 105 100 105 103 99 97 91 88 85 86 81 75 70 67 63 60 59 57 52
228 228 228 228 224 216 196 184 174 174 177 177 183 180 179 166 169 169 179 169 142 119 116 114 116 112 103 103 99 94 92 93 87 83 80 77 74 73 69 60 55 40 40
231 229 230 228 223 210 195 187 173 178 184 185 181 177 169 166 176 185 182 178 187 162 134 131 123 113 105 103 95 92 89 90 90 87 86 83 79 73 71 59 47 41 28
233 229 230 227 222 209 196 186 179 178 186 185 184 188 173 172 179 204 218 218 222 208 174 131 135 129 125 106 98 91 91 90 84 80 80 77 70 65 54 41 31 21 6
233 230 228 228 222 209 195 190 185 187 187 180 180 180 186 192 204 216 232 224 218 218 222 210 171 151 139 125 120 106 95 79 65 63 50 36 26 20 14 9 3 355 347
233 229 225 225 219 208 197 192 191 191 194 200 200 198 205 216 224 233 237 226 214 211 212 197 185 195 201 197 154 126 108 67 15 345 338 337 339 342 345 349 345 340 335
234 228 225 223 218 213 204 197 193 201 196 203 209 207 210 217 225 229 224 211 208 208 203 198 207 218 233 238 228 216 194 298 319 317 315 316 320 326 334 334 331 326 322
232 228 226 225 220 213 209 205 204 200 200 201 204 209 206 218 221 215 211 208 208 207 206 210 218 226 234 240 246 252 259 273 291 299 302 304 307 315 324 321 318 315 313
233 228 228 226 223 220 217 212 210 212 208 203 207 201 192 211 209 214 213 212 212 210 214 219 225 229 235 239 248 255 262 269 277 283 288 292 295 300 308 316 313 310 307
232 231 226 227 224 223 220 219 216 216 220 216 205 206 203 189 187 206 216 216 217 217 219 223 228 232 238 243 250 256 262 267 273 278 282 287 291 296 303 311 311 309 306
228 227 227 225 222 221 221 220 218 216 218 220 214 206 209 207 210 213 219 220 222 221 224 228 233 238 244 249 254 260 263 268 272 277 282 287 291 296 299 307 308 306 304
229 228 226 225 223 223 220 221 220 222 220 219 220 220 226 232 242 239 239 238 228 228 228 233 236 243 250 256 259 262 267 271 275 280 284 290 295 298 301 303 308 307 305
230 229 227 226 223 222 221 222 222 222 221 219 221 226 234 238 245 246 243 246 225 225 227 233 240 247 255 259 261 266 271 276 281 285 291 297 300 302 303 304 306 305 303
237 236 230 228 226 224 222 222 223 224 223 221 224 230 238 242 244 244 244 241 234 230 232 237 242 248 255 260 265 271 276 281 285 291 297 301 302 303 303 304 306 304 302
240 236 234 230 226 223 223 224 224 223 224 226 229 236 241 240 239 239 239 239 238 235 238 242 244 252 257 262 268 273 280 284 289 295 300 301 302 301 300 301 302 302 304
239 235 232 230 226 224 223 223 224 224 225 227 231 236 236 234 235 235 236 238 241 243 238 238 248 255 262 267 272 278 284 290 295 298 298 299 299 299 299 301 302 303 305
240 236 232 229 226 223 222 223 223 225 226 229 232 233 232 232 232 231 234 240 245 248 249 252 258 264 268 273 279 285 290 293 294 296 298 299 300 301 302 303 304 306 307
238 235 232 229 225 223 222 223 223 225 227 230 230 230 227 226 227 231 237 244 251 256 260 263 267 272 278 283 287 291 294 297 300 300 300 303 303 305 308 309 307 307 305
234 233 230 227 226 222 220 221 223 226 227 225 226 224 225 226 228 234 243 251 259 267 274 278 282 287 290 293 296 297 299 301 302 305 308 308 309 311 309 311 311 309 308
231 229 229 225 224 222 220 220 219 216 216 216 215 217 220 224 231 239 248 257 267 277 283 288 292 296 297 298 300 303 303 306 309 312 312 311 312 313 311 314 313 312 313
227 228 226 222 221 220 218 217 214 211 209 211 212 215 220 227 235 244 252 263 276 283 288 294 297 298 300 303 309 312 314 314 315 318 315 313 312 314 317 317 316 320 316
223 222 219 218 217 214 212 211 212 211 210 212 213 213 220 233 239 247 258 270 279 285 291 297 300 304 307 310 313 315 317 317 318 315 316 314 318 318 319 319 324 324 313
217 216 214 213 213 211 207 205 206 208 211 210 212 218 222 229 242 255 269 276 284 293 295 302 306 309 312 314 315 313 313 314 312 315 319 313 319 319 322 323 331 327 319
211 211 210 208 204 201 203 204 204 204 203 203 207 213 222 231 242 254 264 276 287 293 296 305 310 312 311 313 312 311 314 312 310 313 324 311 320 323 327 328 334 332 334
206 205 203 197 193 193 202 205 202 198 198 199 204 211 221 233 246 258 268 279 286 294 305 311 313 311 311 311 309 312 312 315 318 323 332 321 325 328 329 331 334 329 330
201 195 187 186 189 193 203 198 201 202 199 200 201 208 217 228 250 260 273 289 296 305 308 307 308 310 313 315 315 316 317 320 324 327 337 321 329 331 327 329 328 327 328
Wind_Speed_850mb
28 26 26 26 25 21 20 26 30 37 36 38 40 36 36 29 26 20 17 9 19 24 26 23 28 28 29 31 32 30 31 30 30 30 27 30 29 28 28 28 27 26 26
30 29 29 28 27 25 28 32 31 40 41 42 39 37 35 41 33 27 16 14 15 13 22 21 19 24 25 27 29 28 27 26 26 26 23 24 23 20 21 19 22 20 23
33 32 31 30 30 30 34 37 42 44 44 43 46 42 43 36 29 26 18 15 17 19 25 21 18 21 22 22 24 23 23 19 19 18 18 18 16 15 14 15 14 15 15
37 35 33 32 31 33 39 45 48 49 48 48 48 44 43 36 28 25 21 21 23 22 25 22 20 21 19 19 19 14 15 16 15 13 12 13 11 11 10 11 11 11 14
40 38 35 35 33 35 42 52 54 53 51 53 51 46 37 28 23 28 24 23 25 24 19 14 18 22 18 14 12 11 10 9 7 7 7 7 7 8 9 11 13 14 16
42 40 40 40 37 39 46 54 58 57 55 52 47 40 35 35 35 32 30 29 28 24 20 15 15 12 11 10 8 9 6 4 4 6 8 9 10 11 12 14 15 18 21
45 45 45 44 41 44 48 54 58 58 60 57 51 46 44 40 39 36 34 30 28 26 22 17 16 14 12 12 10 6 3 2 6 10 12 13 14 15 16 17 19 22 25
52 49 50 46 45 47 53 55 59 63 62 62 57 48 28 36 39 37 34 32 31 27 22 20 19 17 15 14 13 13 13 12 13 15 17 19 20 20 21 24 26 29 32
51 52 51 48 47 50 54 56 59 62 66 64 57 33 18 20 39 39 38 36 34 29 26 24 22 20 20 18 18 18 19 19 20 22 23 25 28 30 30 30 33 35 38
57 54 52 51 50 52 52 54 56 58 59 61 59 56 23 16 20 21 43 41 37 33 30 27 24 23 22 21 21 23 24 25 27 29 31 34 36 38 40 39 40 42 45
58 56 55 55 54 53 51 53 54 55 56 57 59 58 29 16 15 12 16 43 43 37 32 28 27 26 24 24 26 27 28 30 34 36 39 41 44 48 50 45 45 48 51
58 58 58 59 55 54 54 54 50 52 53 53 56 50 47 27 21 23 21 20 39 37 34 31 29 28 27 28 30 32 34 36 40 42 44 48 53 58 60 57 51 52 53
62 62 61 61 59 58 56 54 53 53 54 53 55 52 41 40 35 26 29 21 22 33 32 34 33 32 31 32 35 37 40 42 45 49 52 58 64 66 67 66 54 53 55
60 58 62 59 58 58 57 56 55 53 53 51 52 48 46 44 41 36 30 28 22 24 29 28 31 34 36 38 40 43 45 48 52 56 62 68 69 70 69 60 52 54 57
55 55 56 58 58 59 59 57 57 55 53 51 49 48 45 45 42 37 34 31 28 21 22 27 31 32 36 39 43 46 50 54 60 65 71 71 71 70 68 61 63 69 66
55 54 56 55 57 58 58 58 56 54 53 52 50 47 43 40 38 35 33 31 29 27 23 20 24 29 33 39 45 51 56 62 67 70 72 72 72 73 76 79 83 82 69
55 53 55 55 56 58 58 57 55 54 54 52 48 45 42 39 36 33 31 30 29 27 26 26 27 30 35 42 49 56 62 66 69 69 70 73 75 79 83 87 87 66 73
52 51 53 54 55 56 57 57 57 56 53 51 47 44 41 38 35 31 30 29 29 28 27 28 32 37 41 50 57 61 65 67 69 71 75 78 81 87 91 88 89 87 91
50 49 51 51 54 54 55 55 53 51 48 43 40 39 37 35 32 30 29 28 28 27 28 32 37 43 50 56 61 64 67 70 72 76 80 88 92 84 99 102 110 106 93
49 48 48 49 51 50 51 51 50 47 42 41 40 38 36 33 30 28 27 27 27 28 32 35 39 44 50 55 61 69 73 74 85 88 95 89 100 105 115 109 111 106 103
47 45 45 47 47 46 46 46 44 43 43 44 42 38 34 32 31 28 26 26 26 30 33 35 39 44 49 56 62 69 79 90 96 95 99 101 115 118 115 112 104 105 85
46 45 46 46 48 47 45 43 42 43 43 41 38 35 33 31 30 30 27 26 29 32 34 36 39 43 49 56 66 75 84 94 101 91 111 124 115 115 105 103 101 94 79
44 44 44 44 44 43 42 41 41 41 40 37 34 32 29 27 25 22 24 27 28 32 40 38 39 43 51 62 71 79 86 90 94 99 102 126 107 102 101 100 95 87 74
42 43 42 41 42 43 43 44 43 41 38 36 33 31 28 25 23 25 26 25 28 32 35 38 42 48 54 63 71 80 84 90 92 90 81 105 92 102 101 98 91 95 90
41 41 40 42 44 46 45 45 45 44 41 37 34 30 25 22 24 29 28 26 28 33 38 44 48 54 62 64 69 77 79 84 92 86 75 72 90 99 105 106 100 104 100
40 41 43 44 48 49 47 41 42 42 41 37 31 26 23 22 27 30 28 28 32 38 41 48 53 55 59 61 64 65 68 69 69 81 59 81 84 85 108 111 117 117 120
Wind_Direction_850mb
230 232 230 226 226 220 202 180 170 164 173 178 173 175 174 165 156 151 154 164 108 104 106 105 105 100 105 103 99 97 91 88 85 86 81 75 70 67 63 60 59 57 52
228 228 228 228 224 216 196 184 174 174 177 177 183 180 179 166 169 169 179 169 142 119 116 114 116 112 103 103 99 94 92 93 87 83 80 77 74 73 69 60 55 40 40
231 229 230 228 223 210 195 187 173 178 184 185 181 177 169 166 176 185 182 178 187 162 134 131 123 113 105 103 95 92 89 90 90 87 86 83 79 73 71 59 47 41 28
233 229 230 227 222 209 196 186 179 178 186 185 184 188 173 172 179 204 218 218 222 208 174 131 135 129 125 106 98 91 91 90 84 80 80 77 70 65 54 41 31 21 6
233 230 228 228 222 209 195 190 185 187 187 180 180 180 186 192 204 216 232 224 218 218 222 210 171 151 139 125 120 106 95 79 65 63 50 36 26 20 14 9 3 355 347
233 229 225 225 219 208 197 192 191 191 194 200 200 198 205 216 224 233 237 226 214 211 212 197 185 195 201 197 154 126 108 67 15 345 338 337 339 342 345 349 345 340 335
234 228 225 223 218 213 204 197 193 201 196 203 209 207 210 217 225 229 224 211 208 208 203 198 207 218 233 238 228 216 194 298 319 317 315 316 320 326 334 334 331 326 322
232 228 226 225 220 213 209 205 204 200 200 201 204 209 206 218 221 215 211 208 208 207 206 210 218 226 234 240 246 252 259 273 291 299 302 304 307 315 324 321 318 315 313
233 228 228 226 223 220 217 212 210 212 208 203 207 201 192 211 209 214 213 212 212 210 214 219 225 229 235 239 248 255 262 269 277 283 288 292 295 300 308 316 313 310 307
232 231 226 227 224 223 220 219 216 216 220 216 205 206 203 189 187 206 216 216 217 217 219 223 228 232 238 243 250 256 262 267 273 278 282 287 291 296 303 311 311 309 306
228 227 227 225 222 221 221 220 218 216 218 220 214 206 209 207 210 213 219 220 222 221 224 228 233 238 244 249 254 260 263 268 272 277 282 287 291 296 299 307 308 306 304
229 228 226 225 223 223 220 221 220 222 220 219 220 220 226 232 242 239 239 238 228 228 228 233 236 243 250 256 259 262 267 271 275 280 284 290 295 298 301 303 308 307 305
230 229 227 226 223 222 221 222 222 222 221 219 221 226 234 238 245 246 243 246 225 225 227 233 240 247 255 259 261 266 271 276 281 285 291 297 300 302 303 304 306 305 303
237 236 230 228 226 224 222 222 223 224 223 221 224 230 238 242 244 244 244 241 234 230 232 237 242 248 255 260 265 271 276 281 285 291 297 301 302 303 303 304 306 304 302
240 236 234 230 226 223 223 224 224 223 224 226 229 236 241 240 239 239 239 239 238 235 238 242 244 252 257 262 268 273 280 284 289 295 300 301 302 301 300 301 302 302 304
239 235 232 230 226 224 223 223 224 224 225 227 231 236 236 234 235 235 236 238 241 243 238 238 248 255 262 267 272 278 284 290 295 298 298 299 299 299 299 301 302 303 305
240 236 232 229 226 223 222 223 223 225 226 229 232 233 232 232 232 231 234 240 245 248 249 252 258 264 268 273 279 285 290 293 294 296 298 299 300 301 302 303 304 306 307
238 235 232 229 225 223 222 223 223 225 227 230 230 230 227 226 227 231 237 244 251 256 260 263 267 272 278 283 287 291 294 297 300 300 300 303 303 305 308 309 307 307 305
234 233 230 227 226 222 220 221 223 226 227 225 226 224 225 226 228 234 243 251 259 267 274 278 282 287 290 293 296 297 299 301 302 305 308 308 309 311 309 311 311 309 308
231 229 229 225 224 222 220 220 219 216 216 216 215 217 220 224 231 239 248 257 267 277 283 288 292 296 297 298 300 303 303 306 309 312 312 311 312 313 311 314 313 312 313
227 228 226 222 221 220 218 217 214 211 209 211 212 215 220 227 235 244 252 263 276 283 288 294 297 298 300 303 309 312 314 314 315 318 315 313 312 314 317 317 316 320 316
223 222 219 218 217 214 212 211 212 211 210 212 213 213 220 233 239 247 258 270 279 285 291 297 300 304 307 310 313 315 317 317 318 315 316 314 318 318 319 319 324 324 313
217 216 214 213 213 211 207 205 206 208 211 210 212 218 222 229 242 255 269 276 284 293 295 302 306 309 312 314 315 313 313 314 312 315 319 313 319 319 322 323 331 327 319
211 211 210 208 204 201 203 204 204 204 203 203 207 213 222 231 242 254 264 276 287 293 296 305 310 312 311 313 312 311 314 312 310 313 324 311 320 323 327 328 334 332 334
206 205 203 197 193 193 202 205 202 198 198 199 204 211 221 233 246 258 268 279 286 294 305 311 313 311 311 311 309 312 312 315 318 323 332 321 325 328 329 331 334 329 330
201 195 187 186 189 193 203 198 201 202 199 200 201 208 217 228 250 260 273 289 296 305 308 307 308 310 313 315 315 316 317 320 324 327 337 321 329 331 327 329 328 327 328